Location: Am Bach
(47.2149°N, 9.5217°E)
Time: 05:08:12
(UTC+00:00)

Daily predictions for brighter satellites

Satellite Brightness Start Highest point End
(mag) Time Altitude Azimuth Time Altitude Azimuth Time Altitude Azimuth
Cosmos 2344 4.2 02:43:59 48° E 02:43:59 48° E 02:49:53 10° NE
Cosmos 2369 Rocket 4.1 03:18:03 10° SSE 03:22:34 26° ESE 03:27:08 10° NE
CENTAUR R/B 2.7 03:29:56 66° ENE 03:29:56 66° ENE 03:36:13 10° NE
BREEZE-M DEB (TANK) 3.9 03:37:39 49° SE 03:37:39 49° SE 03:45:09 10° ESE
NOSS 3-2 (A) 3.7 03:44:15 57° NNE 03:44:15 57° NNE 03:49:33 10° NE
MOS 1-B Rocket 4.4 03:41:32 10° SSE 03:47:37 58° ENE 03:50:35 28° N
Cosmos 1943 Rocket 2.5 03:48:57 58° NNE 03:48:57 58° NNE 03:53:27 10° NNE
CZ-2C R/B 3.8 03:45:12 10° SE 03:50:18 42° ENE 03:54:18 16° N
Cosmos 1816 Rocket 4.4 03:50:47 78° N 03:50:47 78° N 03:56:39 10° N
NOSS 3-2 (C) 3.3 03:50:59 73° SSE 03:51:14 75° SE 03:57:41 10° NE
Envisat 4.2 03:53:43 10° NNE 03:58:31 40° E 04:03:16 10° SSE
Cosmos 968 Rocket 3.5 04:04:52 74° SSE 04:05:12 78° ESE 04:10:20 10° NNE
COSMO-SKYMED 1 3.5 04:01:29 10° SE 04:05:39 47° ENE 04:06:40 39° NNE
Cosmos 2098 Rocket 4.3 04:01:58 10° SSE 04:05:40 40° E 04:10:19 10° NNE
Cosmos 2297 3.7 04:09:09 63° NNW 04:09:09 63° NNW 04:14:15 10° NNE
Cosmos 1634 Rocket 4.0 04:03:55 10° N 04:10:14 81° E 04:16:29 10° S
Cosmos 2278 Rocket 4.2 04:19:52 15° N 04:19:52 15° N 04:21:17 10° N
USA 238 DEB 3.5 04:17:39 52° WSW 04:19:16 72° NW 04:26:12 10° NE
USA 238 3.5 04:17:43 52° WSW 04:19:23 72° NW 04:26:18 10° NE
Tsikada Rocket 3.8 04:14:13 10° SSW 04:20:23 68° W 04:26:41 10° N
USA 215 3.2 04:19:15 10° ESE 04:25:47 81° NNE 04:28:33 38° NW
Meteor 2-6 Rocket 4.4 04:21:37 10° N 04:27:02 65° ENE 04:32:23 10° SSE
Meteor 2-3 Rocket 3.8 04:32:53 41° WSW 04:34:26 53° WNW 04:40:04 10° N
FALCON 9 DEB 4.2 04:36:41 38° NNE 04:36:41 38° NNE 04:39:02 10° ENE
ATLAS 5 CENTAUR R/B 4.5 04:33:55 10° SE 04:35:55 14° ESE 04:38:01 10° E
Cosmos 1812 2.9 04:43:26 53° SW 04:43:26 53° SW 04:46:36 10° S
Cosmos 1833 4.2 04:39:21 24° NNW 04:42:58 80° ENE 04:48:42 10° SSE
SJ 16-02 4.0 04:40:01 10° SSE 04:43:22 22° E 04:46:43 10° NE
Meteor 1-10 Rocket 4.4 04:41:17 10° N 04:46:50 70° ENE 04:52:22 10° SSE
SL-8 R/B 3.6 04:45:55 49° W 04:47:09 77° SSW 04:51:55 10° ESE
CZ-4B R/B 4.0 04:45:25 10° NNE 04:49:53 86° WNW 04:54:22 10° SSW
Meteor 2-8 Rocket 4.5 04:44:10 10° N 04:50:22 82° E 04:56:29 10° S
Landsat 5 3.5 04:48:51 10° S 04:53:22 74° WSW 04:56:28 20° NNW
SKYMED 2 3.6 04:49:26 10° S 04:53:41 56° W 04:55:17 35° NW
CZ-4B R/B 4.3 04:51:44 10° E 04:53:42 15° ENE 04:55:39 10° NNE
FALCON 9 DEB 4.5 04:54:41 23° NNE 04:54:41 23° NNE 04:56:24 10° NE
Cosmos 2263 4.1 04:48:58 10° SSW 04:54:40 86° WNW 05:00:28 10° NNE
FALCON 9 DEB 4.5 04:56:05 23° NNE 04:56:05 23° NNE 04:57:51 10° NE
Cosmos 2344 4.0 04:54:01 29° WNW 04:57:08 41° NNW 05:04:53 10° NE
Cosmos 2297 Rocket 4.3 04:56:28 10° N 05:00:37 20° NE 05:04:44 10° E
Cosmos 921 Rocket 3.9 05:03:15 30° WSW 05:03:15 30° WSW 05:06:47 10° SSW
Meteor 1-31 Rocket 2.7 05:00:18 10° N 05:04:08 60° WNW 05:07:59 10° SSW
Cosmos 2369 Rocket 2.2 05:00:47 10° SW 05:06:14 54° WNW 05:11:45 10° NNE
BREEZE-M DEB (TANK) 4.3 04:54:28 10° SW 05:07:22 52° SSE 05:11:03 10° E
CZ-4C R/B 2.6 05:04:24 10° S 05:07:30 62° WSW 05:08:21 42° NW
IRAS Rocket 4.2 05:03:30 10° SSE 05:09:01 86° ENE 05:14:33 10° NNW
Cosmos 1503 Rocket 3.9 05:04:18 10° SSW 05:09:34 84° WNW 05:14:57 10° NNE
H-2A R/B 2.7 05:07:37 10° SSE 05:11:47 55° ENE 05:16:05 10° N
BREEZE-M DEB (TANK) 3.2 05:11:22 33° WNW 05:12:44 66° N 05:20:41 10° E
H-2A R/B 3.3 05:09:28 10° N 05:12:50 33° WNW 05:16:13 10° SW
Okean 3 Rocket 3.7 05:09:47 10° SSW 05:14:14 55° WNW 05:18:43 10° N
FALCON 9 DEB 4.0 05:14:31 26° NNW 05:14:36 26° N 05:17:08 10° NE
DNEPR-1 R/B 4.3 05:14:05 25° WNW 05:16:37 48° WSW 05:22:06 10° SSE
Cosmos 1151 Rocket 3.7 05:15:09 25° NW 05:16:49 34° W 05:20:45 10° SSW
Cosmos 1486 Rocket 4.3 05:12:02 10° SW 05:17:07 46° WNW 05:22:12 10° NNE
Cosmos 1862 3.6 05:13:37 10° SSW 05:17:22 42° WNW 05:21:09 10° N
DMSP B5D2-2 4.0 05:12:37 10° SSE 05:17:50 88° WSW 05:23:05 10° NNW
COSMOS 2487 4.1 05:17:19 10° N 05:20:21 30° ENE 05:23:21 10° SE
CENTAUR R/B 3.3 05:17:08 22° WNW 05:20:33 35° NNW 05:27:20 10° NE
Cosmos 1656 Rocket 3.7 05:18:40 10° SW 05:23:56 53° WNW 05:29:17 10° NNE
Cosmos 1766 Rocket 4.0 05:20:01 10° SW 05:24:03 38° WNW 05:28:07 10° N
Cosmos 773 Rocket 3.9 05:20:42 10° NNW 05:25:57 77° WSW 05:31:07 10° SSE
CZ-2C R/B 3.4 05:25:51 10° SSW 05:30:41 31° W 05:35:27 10° NNW
Cosmos 1943 Rocket 3.4 05:30:32 18° WNW 05:32:16 21° NW 05:36:28 10° N
Cosmos 1328 Rocket 4.2 05:29:16 13° NNW 05:32:41 32° W 05:36:32 10° SSW
Cosmos 2227 Rocket 4.0 05:31:41 10° N 05:36:18 25° NE 05:40:54 10° E
Envisat 3.7 05:33:00 10° N 05:37:24 30° WNW 05:41:46 10° SW
CZ-4B R/B 2.4 05:34:14 10° N 05:37:49 75° WNW 05:41:23 10° SSW
SL-27 R/B 2.6 05:36:26 13° NNW 05:39:30 56° WSW 05:42:58 10° S
COSMO-SKYMED 1 4.0 05:38:57 10° SW 05:42:03 19° W 05:43:53 15° WNW
Lacrosse 4 Rocket 4.0 05:40:13 10° N 05:42:31 14° NE 05:44:49 10° ENE
NOSS 3-2 (C) 4.3 05:38:28 14° W 05:42:48 32° NNW 05:48:52 10° NE
Alouette 2 Rocket 3.2 05:39:08 10° NNW 05:43:02 86° E 05:46:36 10° SSE
Cosmos 2098 Rocket 4.3 05:43:48 10° WSW 05:47:03 21° WNW 05:50:53 10° NNW
Cosmos 1607 4.4 05:41:55 10° NNW 05:48:08 60° NE 05:54:13 10° SE
ATLAS 3B R/B 3.2 05:41:48 10° SSW 05:48:12 63° ESE 05:54:58 10° NE
NOAA 12 4.0 05:43:00 10° NNE 05:48:17 78° WNW 05:53:31 10° SSW
Cosmos 1602 4.2 05:44:58 10° S 05:48:43 63° E 05:52:30 10° NNE
Nadezhda 4 Rocket 4.0 05:44:00 10° SSW 05:50:06 64° WNW 05:56:19 10° N
NOAA 11 4.4 05:48:19 10° N 05:53:33 48° WNW 05:58:48 10° SW
Meteor 1-27 Rocket 3.9 05:48:37 10° NNW 05:54:07 55° W 05:59:41 10° S
BREEZE M DEB (TANK) 1.9 05:53:54 13° WNW 05:56:45 67° NNE 05:58:47 10° E
Cosmos 158 Rocket 4.0 05:51:37 10° NNW 05:56:46 90° E 06:02:00 10° SSE
Cosmos 1174 3.1 05:54:31 10° SSW 05:57:29 84° SE 06:00:38 10° NE
Cosmos 2228 Rocket 3.1 05:53:02 10° N 05:57:33 87° W 06:02:05 10° S
Cosmos 1408 Rocket 4.1 05:54:31 10° SW 05:58:28 35° WNW 06:02:27 10° N
SMAP 3.0 05:54:36 10° NNE 05:59:17 84° WNW 06:03:57 10° SSW
PSLV R/B 4.0 05:58:35 10° SSE 06:02:38 83° ENE 06:06:46 10° NNW
Cosmos 1092 Rocket 4.0 05:59:12 10° S 06:05:27 82° W 06:11:49 10° N
Cosmos 1743 Rocket 3.7 06:02:15 10° SSW 06:06:33 53° WNW 06:10:50 10° N
Cosmos 1340 Rocket 3.0 06:04:33 10° SSW 06:08:23 48° WNW 06:12:16 10° N
Cosmos 2219 4.4 06:03:20 10° NNW 06:08:37 38° NE 06:13:54 10° ESE
USA 215 4.1 06:03:19 10° SSE 06:09:12 35° SW 06:15:07 10° WNW
Cosmos 1428 Rocket 4.5 06:03:10 10° S 06:09:18 87° W 06:15:28 10° N
ADEOS 4.3 06:05:11 10° N 06:09:46 32° WNW 06:14:19 10° SW
FALCON 9 DEB 4.2 06:09:52 10° WNW 06:12:54 29° N 06:15:57 10° ENE
AQUARIUS 4.2 06:13:07 10° N 06:17:35 64° WNW 06:22:01 10° SSW
CZ-4B R/B 4.3 06:12:42 10° NNE 06:17:51 49° E 06:23:00 10° S
Cosmos 1666 Rocket 4.4 06:13:29 10° S 06:17:52 57° E 06:22:17 10° NNE
Cosmos 1939 Rocket 3.3 06:14:11 10° N 06:17:52 38° WNW 06:21:29 10° SW
ATLAS 5 CENTAUR R/B 1.3 06:15:55 10° SW 06:19:45 66° NW 06:24:09 10° NE
Cosmos 1500 3.2 06:16:42 10° S 06:20:30 84° W 06:24:20 10° N
